Regional Weather Roundup
Issued by NWS

Current Version | Previous Version | Text Only | Print | Product List | Glossary Off
Versions: 1 2 3 4 5 6 7 8 9 10 11 12 13 14 15 16 17 18 19 20 21 22 23 24 25 26 27 28 29 30 31 32 33 34 35 36 37 38 39 40 41 42 43 44 45 46 47 48 49 50

000
ASUS44 KMEG 281710
RWRTN
TENNESSEE HOURLY STATE WEATHER ROUNDUP
NATIONAL WEATHER SERVICE MEMPHIS TN
1100 AM CST SAT FEB 28 2015

TNZ002-004-019-021-049-052-054-088>092-281800-
WEST TENNESSEE

CITY           SKY/WX    TMP DP  RH WIND       PRES   REMARKS
MEMPHIS INTL   CLOUDY    34  15  46 NE9       30.54F WCI  27
NWS MEMPHIS      N/A     32 N/A N/A MISG        N/A
JACKSON        CLOUDY    34  14  43 E7        30.56F WCI  28
DYERSBURG      CLOUDY    28   9  43 NE9       30.60S WCI  20
UNION CITY     MOSUNNY   27  16  63 NE3       30.58F
PARIS          MOSUNNY   28  14  54 E6        30.58F WCI  22
LEXINGTON      CLOUDY    34  12  40 E8        30.54F WCI  27
SAVANNAH       MOSUNNY   39  14  35 CALM      30.54F
$$

TNZ008-025-027-028-033-062-065-066-281800-
NORTH MIDDLE TENNESSEE

CITY           SKY/WX    TMP DP  RH WIND       PRES   REMARKS
NASHVILLE      CLOUDY    34  15  46 NE5       30.59F WCI  30
CLARKSVILLE    CLOUDY    30  17  58 NE8       30.60F WCI  22
SMYRNA         PTSUNNY   35  16  46 VRB5      30.60F WCI  31
COOKEVILLE     MOSUNNY   37  21  52 E3        30.55F
CROSSVILLE     SUNNY     41  26  55 SE10      30.53F
$$

TNZ061-075-076-078-094-096-097-281800-
SOUTH MIDDLE TENNESSEE

CITY           SKY/WX    TMP DP  RH WIND       PRES   REMARKS
FAYETTEVILLE   SUNNY     41  25  52 SE5         N/A
TULLAHOMA      SUNNY     43  23  45 VRB5      30.54F
WINCHESTER     PTSUNNY   45  28  53 SE9       30.54S
MCMINNVILLE    MOSUNNY   39  21  48 NE5       30.55S
COLUMBIA         N/A     34  18  51 E6        30.54F WCI  29
SHELBYVILLE    PTSUNNY   41  23  48 VRB3      30.56F
$$

TNZ017-018-042-046-047-281800-
NORTHEAST TENNESSEE

CITY           SKY/WX    TMP DP  RH WIND       PRES   REMARKS
TRI CITIES     PTSUNNY   35  18  49 CALM      30.60F
ELIZABETHTON   SUNNY     37  19  48 SE7       30.59S WCI  32
$$

TNZ012-013-036-069-073-074-281800-
CENTRAL EAST TENNESSEE

CITY           SKY/WX    TMP DP  RH WIND       PRES   REMARKS
KNOXVILLE      PTSUNNY   33  19  56 E7        30.60  WCI  27
OAK RIDGE      MOSUNNY   39  19  44 VRB3      30.61F
GATLINBURG     SUNNY     30  18  59 N5        30.60F WCI  25
MORRISTOWN     SUNNY     36  19  51 E6        30.59F WCI  31
$$

TNZ083-085-099-281800-
SOUTHEAST TENNESSEE

CITY           SKY/WX    TMP DP  RH WIND       PRES   REMARKS
CHATTANOOGA    PTSUNNY   40  21  46 N6        30.60F
$$

SKY/WX REPORTED AS FAIR MEANS FEW OR NO CLOUDS BELOW
12 THOUSAND FEET.




USA.gov is the U.S. government's official web portal to all federal, state and local government web resources and services.